K5TCS Weather Reports


Display with metric or nautical units.
time (UTC)temp
F
wind
direction
speed
MPH
gust
MPH
rain 1hr
in
rain 24hr
in
rain mn
in
humidity
%
barometer
mb
20260831115015 57 0.0 0.0 0.00 0.00 0.00 44 1026.8
20260831114016 58 0.0 3.0 0.00 0.00 0.00 45 1027.1
20260831113016 58 0.0 4.0 0.00 0.00 0.00 44 1027.1
20260831112015 57 0.0 0.0 0.00 0.00 0.00 44 1027.0
20260831111016 56 0.0 0.0 0.00 0.00 0.00 45 1026.6
20260831110015 57 0.0 0.0 0.00 0.00 0.00 46 1026.7
20260831105015 57 0.0 0.0 0.00 0.00 0.00 46 1027.1
20260831104015 56 0.0 0.0 0.00 0.00 0.00 47 1026.6
20260831103015 56 0.0 0.0 0.00 0.00 0.00 48 1026.4
20260831102016 57 0.0 0.0 0.00 0.00 0.00 49 1026.8
20260831101015 57 0.0 0.0 0.00 0.00 0.00 49 1026.4
20260831100015 57 0.0 3.0 0.00 0.00 0.00 50 1026.5
20260831095015 57 0.0 2.0 0.00 0.00 0.00 51 1026.4
20260831094037 57 0.0 1.0 0.00 0.00 0.00 51 1026.4
20260831093017 57 0.0 1.0 0.00 0.00 0.00 52 1026.5
20260831092037 58 0.0 2.0 0.00 0.00 0.00 52 1026.5
20260831091017 57 0.0 0.0 0.00 0.00 0.00 52 1026.3
20260831090038 57 0.0 0.0 0.00 0.00 0.00 53 1026.4
20260831085037 58 0.0 1.0 0.00 0.00 0.00 53 1027.0
20260831084018 59 0.0 4.0 0.00 0.00 0.00 52 1026.9
20260831083017 58 0.0 2.0 0.00 0.00 0.00 52 1026.7
20260831082038 57 0.0 0.0 0.00 0.00 0.00 53 1026.4
20260831081017 57 0.0 0.0 0.00 0.00 0.00 53 1026.3
20260831080017 58 0.0 0.0 0.00 0.00 0.00 54 1026.6
20260831075037 59 0.0 0.0 0.00 0.00 0.00 53 1027.1
20260831074017 60 0.0 0.0 0.00 0.00 0.00 51 1027.7
20260831073017 60 0.0 2.0 0.00 0.00 0.00 52 1027.4
20260831072017 59 0.0 1.0 0.00 0.00 0.00 53 1027.4
20260831071017 60 0.0 2.0 0.00 0.00 0.00 52 1027.8
20260831070017 60 0.0 2.0 0.00 0.00 0.00 51 1027.8
20260831065017 61 0.0 4.0 0.00 0.00 0.00 51 1027.7
20260831064017 59 0.0 3.0 0.00 0.00 0.00 52 1028.3
20260831063157 62 0.0 2.0 0.00 0.00 0.00 50 1028.8
20260831062017 63 0.0 3.0 0.00 0.00 0.00 47 1029.2
20260831061017 62 0.0 2.0 0.00 0.00 0.00 49 1028.3
20260831060017 59 0.0 0.0 0.00 0.00 0.00 52 1027.8
20260831055057 59 0.0 0.0 0.00 0.00 0.00 52 1027.8
20260831054037 59 0.0 0.0 0.00 0.00 0.00 52 1027.9
20260831053036 59 0.0 0.0 0.00 0.00 0.00 52 1028.0
20260831052016 60 0.0 0.0 0.00 0.00 0.00 52 1028.5
20260831051057 60 0.0 0.0 0.00 0.00 0.00 52 1028.0
20260831050017 60 0.0 0.0 0.00 0.00 0.00 53 1028.0
20260831045016 61 0.0 0.0 0.00 0.00 0.00 53 1028.0
20260831044057 61 0.0 0.0 0.00 0.00 0.00 52 1027.3
20260831043036 61 0.0 0.0 0.00 0.00 0.00 53 1027.3
20260831042016 62 0.0 0.0 0.00 0.00 0.00 53 1027.5
20260831041016 62 0.0 0.0 0.00 0.00 0.00 52 1027.1
20260831040016 63 0.0 0.0 0.00 0.00 0.00 52 1027.6
20260831035036 63 0.0 0.0 0.00 0.00 0.00 53 1027.5
20260831034016 63 0.0 0.0 0.00 0.00 0.00 53 1026.2
20260831033016 64 0.0 0.0 0.00 0.00 0.00 54 1026.0
20260831032016 66 0.0 0.0 0.00 0.00 0.00 54 1026.2
20260831031016 67 0.0 0.0 0.00 0.00 0.00 51 1023.9
20260831030016 68 0.0 0.0 0.00 0.00 0.00 52 1024.5
20260831025016 69 0.0 0.0 0.00 0.00 0.00 51 1024.3
20260831024016 72 0.0 0.0 0.00 0.00 0.00 46 1023.7
20260831023016 72 0.0 0.0 0.00 0.00 0.00 44 1023.9
20260831022016 73 0.0 0.0 0.00 0.00 0.00 43 1023.7
20260831021016 73 0.0 0.0 0.00 0.00 0.00 44 1023.3
20260831020016 74 0.0 0.0 0.00 0.00 0.00 43 1023.2
20260831015016 75 0.0 0.0 0.00 0.00 0.00 40 1023.5
20260831014016 76 0.0 2.0 0.00 0.00 0.00 39 1023.4
20260831013016 77 0.0 0.0 0.00 0.00 0.00 37 1023.8
20260831012016 77 0.0 0.0 0.00 0.00 0.00 37 1023.8
20260831011016 78 0.0 2.0 0.00 0.00 0.00 37 1023.8
20260831010016 78 113 1.0 6.0 0.00 0.00 0.00 37 1023.8
20260831005016 79 0.0 2.0 0.00 0.00 0.00 37 1023.8
20260831004016 79 0.0 0.0 0.00 0.00 0.00 37 1024.3
20260831003016 79 0.0 0.0 0.00 0.03 0.00 36 1024.2
20260831002015 80 90 1.0 5.0 0.00 0.03 0.00 36 1024.1
20260831001015 80 0.0 3.0 0.00 0.03 0.00 36 1024.6
20260831000016 81 0.0 4.0 0.00 0.03 0.00 36 1024.4
20260830235015 81 113 1.0 4.0 0.00 0.03 0.00 35 1024.4
20260830234015 82 0.0 6.0 0.00 0.03 0.00 35 1025.0
20260830233016 82 0.0 1.0 0.00 0.03 0.00 35 1025.1
20260830232016 83 0.0 3.0 0.00 0.03 0.00 35 1025.5
20260830231016 83 0.0 3.0 0.00 0.03 0.00 34 1025.6
20260830230036 84 0.0 0.0 0.00 0.03 0.00 34 1025.8
20260830225035 85 113 1.0 5.0 0.00 0.03 0.00 34 1025.9
20260830224016 83 0.0 1.0 0.00 0.03 0.00 35 1025.9
20260830223015 83 0.0 3.0 0.00 0.03 0.00 34 1025.9
20260830222016 83 0.0 5.0 0.00 0.03 0.00 34 1025.4
20260830221017 83 113 1.0 7.0 0.00 0.03 0.00 34 1026.0
20260830220017 83 0.0 1.0 0.00 0.03 0.00 34 1026.1
20260830215017 82 113 1.0 5.0 0.00 0.03 0.00 35 1025.8
20260830214037 82 90 1.0 5.0 0.00 0.03 0.00 36 1025.9
20260830213017 82 0.0 5.0 0.00 0.03 0.00 36 1026.1
20260830212017 82 0.0 1.0 0.00 0.03 0.00 37 1026.2
20260830211037 82 68 1.0 5.0 0.00 0.03 0.00 37 1026.3
20260830210017 82 45 1.0 7.0 0.00 0.03 0.00 37 1026.3
20260830205019 82 45 1.0 10.0 0.00 0.03 0.00 37 1026.4
20260830204017 82 45 2.0 10.0 0.00 0.03 0.00 37 1026.4
20260830203017 82 45 2.0 10.0 0.00 0.03 0.00 38 1026.7
20260830202017 82 68 2.0 10.0 0.00 0.03 0.00 38 1026.7
20260830201017 82 45 1.0 7.0 0.00 0.03 0.00 38 1027.0
20260830200017 82 45 1.0 5.0 0.00 0.03 0.00 38 1027.1
20260830195017 81 0 1.0 6.0 0.00 0.03 0.00 38 1026.8
20260830194037 81 113 1.0 7.0 0.00 0.03 0.00 39 1027.4
20260830193017 81 135 1.0 5.0 0.00 0.03 0.00 37 1027.2
20260830192037 82 0.0 5.0 0.00 0.03 0.00 37 1027.3
20260830191017 82 113 1.0 10.0 0.00 0.03 0.00 37 1027.4
20260830190018 82 0.0 2.0 0.00 0.03 0.00 36 1027.6
20260830185017 82 0.0 4.0 0.00 0.03 0.00 35 1027.7
20260830184037 82 0.0 2.0 0.00 0.03 0.00 35 1027.6
20260830183017 83 113 1.0 5.0 0.00 0.03 0.00 34 1028.2
20260830182017 84 23 1.0 6.0 0.00 0.03 0.00 33 1028.9
20260830181017 85 0.0 3.0 0.00 0.03 0.00 33 1028.8
20260830180017 85 0.0 4.0 0.00 0.03 0.00 34 1029.2
20260830175017 84 180 1.0 7.0 0.00 0.03 0.00 34 1028.9
20260830174017 85 113 1.0 4.0 0.00 0.03 0.00 33 1029.0
20260830173017 86 158 1.0 4.0 0.00 0.03 0.00 34 1029.8
20260830172017 84 270 1.0 4.0 0.00 0.03 0.00 35 1029.8
20260830171017 85 0.0 3.0 0.00 0.03 0.00 35 1029.8
20260830170037 84 0.0 3.0 0.00 0.03 0.00 36 1030.5
20260830165017 83 0.0 4.0 0.00 0.03 0.00 36 1030.3
20260830164037 82 68 1.0 5.0 0.00 0.03 0.00 38 1030.5
20260830163017 81 338 1.0 5.0 0.00 0.03 0.00 37 1030.8
20260830162016 81 0 1.0 7.0 0.00 0.03 0.00 37 1030.9
20260830161056 80 45 1.0 6.0 0.00 0.03 0.00 38 1030.6
20260830160017 80 45 2.0 7.0 0.00 0.03 0.00 39 1031.5
20260830155037 79 0.0 4.0 0.00 0.03 0.00 38 1031.1
20260830154016 79 45 1.0 5.0 0.00 0.03 0.00 38 1031.1
20260830153016 77 0.0 4.0 0.00 0.03 0.00 40 1030.8
20260830152016 75 0.0 0.0 0.00 0.03 0.00 40 1030.4
20260830151016 73 0.0 0.0 0.00 0.03 0.00 40 1030.1
20260830150016 70 0.0 0.0 0.00 0.03 0.00 41 1029.4
20260830145017 67 0.0 0.0 0.00 0.03 0.00 42 1028.5
20260830144016 64 0.0 0.0 0.00 0.03 0.00 42 1028.1
20260830143016 63 0.0 0.0 0.00 0.03 0.00 42 1028.0
20260830142016 60 0.0 0.0 0.00 0.03 0.00 42 1027.1
20260830141016 60 0.0 1.0 0.00 0.03 0.00 42 1027.0
20260830140016 59 0.0 0.0 0.00 0.03 0.00 42 1027.4
20260830135016 59 0.0 2.0 0.00 0.03 0.00 43 1027.4
20260830134016 57 0.0 2.0 0.00 0.03 0.00 40 1026.8
20260830133016 56 0.0 0.0 0.00 0.03 0.00 40 1026.3
20260830132016 57 0.0 0.0 0.00 0.03 0.00 41 1026.4
20260830131016 57 0.0 0.0 0.00 0.03 0.00 41 1026.3
20260830130016 56 0.0 1.0 0.00 0.03 0.00 40 1027.0
20260830125016 56 225 1.0 4.0 0.00 0.03 0.00 41 1027.0
20260830124016 57 0.0 1.0 0.00 0.03 0.00 41 1026.8
20260830123016 57 0.0 1.0 0.00 0.03 0.00 41 1027.9
20260830122016 57 0.0 2.0 0.00 0.03 0.00 41 1027.8
20260830121016 57 0.0 2.0 0.00 0.03 0.00 42 1027.7
20260830120016 57 0.0 0.0 0.00 0.03 0.00 42 1027.6